Location: Middle Fork Walnut Creek
(38.5383°N, 100.1385°W)
Time: 11:04:07
(UTC+00:00)

Daily predictions for brighter satellites

Satellite Brightness Start Highest point End
(mag) Time Altitude Azimuth Time Altitude Azimuth Time Altitude Azimuth
Cosmos 1656 Rocket 3.6 12:01:04 10° SW 12:06:22 57° WNW 12:11:43 10° NNE
COSMO-SKYMED 1 2.4 12:04:33 10° S 12:08:53 74° WSW 12:12:42 13° NNW
CZ-2C R/B 2.6 12:09:04 10° S 12:14:32 69° WSW 12:19:56 10° NNW
Cosmos 1943 Rocket 3.9 12:16:50 15° NNW 12:16:50 15° NNW 12:18:45 10° NNW
DNEPR-1 R/B 4.2 12:11:28 17° NNW 12:15:22 73° ENE 12:21:20 10° SE
BREEZE-M DEB 3.2 12:17:59 15° SW 12:20:12 69° SE 12:26:59 10° ENE
Envisat 3.3 12:16:17 10° N 12:21:05 43° WNW 12:25:51 10° SW
Cosmos 1408 Rocket 3.5 12:19:42 10° S 12:24:00 85° E 12:28:19 10° N
Cosmos 2098 Rocket 3.6 12:21:47 10° SW 12:25:12 32° WNW 12:29:24 10° N
CENTAUR R/B 3.9 12:25:58 17° NW 12:27:30 18° NNW 12:32:10 10° N
Genesis I 4.4 12:26:59 23° W 12:27:53 25° WSW 12:31:13 10° S
Cosmos 1340 Rocket 4.0 12:24:09 10° SSE 12:27:54 45° E 12:31:43 10° NNE
DELTA 2 R/B (1) 3.5 12:28:01 18° W 12:32:12 85° N 12:37:46 10° E
Cosmos 1743 Rocket 4.4 12:28:09 10° S 12:32:24 53° E 12:36:40 10° NNE
Cosmos 1174 3.4 12:31:38 10° SSW 12:34:36 66° ESE 12:37:35 10° NE
CZ-4B R/B 4.2 12:33:19 10° ESE 12:35:36 17° ENE 12:37:52 10° NNE
SMAP 4.4 12:31:27 10° NNE 12:35:54 43° E 12:40:19 10° S
Cosmos 2279 Rocket 4.2 12:33:45 10° NNW 12:39:40 49° W 12:45:35 10° SSW
Cosmos 1812 3.9 12:38:56 18° WNW 12:40:18 22° W 12:43:18 10° SW
NOAA 11 4.2 12:38:08 10° N 12:43:34 65° WNW 12:48:59 10° SSW
Cosmos 1939 Rocket 3.3 12:40:17 10° NNE 12:44:12 65° E 12:48:01 10° S
Cosmos 1515 Rocket 3.4 12:40:30 10° N 12:44:51 78° W 12:49:11 10° S
Nadezhda 4 Rocket 3.9 12:39:31 10° S 12:45:39 78° W 12:51:54 10° N
Meteor 1-27 Rocket 3.9 12:40:20 10° N 12:46:01 80° E 12:51:48 10° SSE
SJ 16-02 1.3 12:42:01 10° SSW 12:46:22 85° WNW 12:50:47 10° NNE
Meteor PRIRODA 3.5 12:43:21 10° N 12:46:56 63° WNW 12:50:31 10° SSW
Cosmos 1354 Rocket 4.4 12:44:01 10° SW 12:48:56 40° WNW 12:53:56 10° N
Meteor 2-15 Rocket 4.4 12:44:14 10° N 12:50:19 82° W 12:56:22 10° S
CZ-4C R/B 3.6 12:49:44 10° SSW 12:52:33 30° W 12:55:23 10° NW
Landsat 5 4.4 12:49:22 10° SSW 12:53:23 31° W 12:57:24 10° NW
ATLAS 3B R/B 2.7 12:48:12 10° SSW 12:54:40 88° ESE 13:01:28 10° NNE
ADEOS 3.9 12:50:56 10° N 12:55:50 42° WNW 13:00:43 10° SW
SL-8 R/B 3.9 12:55:45 11° NW 13:00:25 69° NNE 13:05:10 10° ESE
SL-4 R/B 4.0 12:57:36 10° SSW 13:00:37 27° SE 13:03:48 10° ENE
Cosmos 1500 Rocket 3.6 12:56:21 10° SSW 13:00:46 66° W 13:05:13 10° N
Cosmos 1092 Rocket 4.2 12:55:09 10° S 13:01:21 81° E 13:07:41 10° N
Meteor 1-31 Rocket 4.4 13:00:03 10° NNW 13:02:21 15° WNW 13:04:39 10° WSW
ATLAS 5 CENTAUR R/B 1.4 12:59:17 10° SW 13:02:57 51° NW 13:07:00 10° NNE
COSMOS 2487 3.7 13:05:18 10° N 13:08:28 40° ENE 13:11:38 10° SE
CZ-2C R/B 3.2 13:04:09 10° N 13:08:49 46° WNW 13:13:42 10° SW
Sich 1 3.4 13:06:51 10° S 13:11:07 69° E 13:15:22 10° NNE
Cosmos 1805 Rocket 3.6 13:08:15 10° S 13:12:39 86° W 13:17:02 10° N
Meteor 1-25 Rocket 4.3 13:07:05 10° S 13:12:44 88° WNW 13:18:20 10° N
H-2A R/B 2.1 13:10:08 10° S 13:14:19 64° WSW 13:18:38 10° NNW
USA 215 3.4 13:10:30 10° SE 13:17:00 69° SW 13:23:30 10° NW
FALCON 9 R/B 3.9 13:09:21 10° W 13:27:15 50° SSW 13:32:32 10° SE
Nadezhda 4 Rocket 4.1 23:36:21 10° N 23:42:43 81° E 23:49:02 10° S
Cosmos 44 3.7 23:42:00 10° NW 23:46:37 63° WSW 23:50:58 10° SSE
CZ-2C R/B 3.5 23:45:09 10° S 23:47:41 15° SSE 23:50:11 10° ESE
USA 229 DEB 4.0 23:40:32 10° NNW 23:47:53 61° NE 23:55:37 10° SE
USA 229 4.0 23:40:38 10° NNW 23:47:58 60° NE 23:55:42 10° SE
Cosmos 1782 3.4 23:45:31 10° SSE 23:49:13 37° E 23:52:55 10° NNE
Cosmos 2082 Rocket 2.6 23:45:27 10° S 23:50:52 47° ESE 23:56:16 10° NE
CORIOLIS 4.4 23:47:16 10° SE 23:52:26 50° ENE 23:57:40 10° N
NOAA 12 4.2 23:48:23 10° SSE 23:53:42 88° ENE 23:59:02 10° NNW
